Time,TemperatureF,DewpointF,PressureIn,WindDirection,WindDirectionDegrees,WindSpeedMPH,WindSpeedGustMPH,Humidity,HourlyPrecipIn,Conditions,Clouds,dailyrainin,SoftwareType,DateUTC
2013-02-21 00:00:00,42.0,34.0,-100.00,NNW,339,3.0,-999.0,72,0.00,,,-99.99,,2013-02-21 08:00:00,
2013-02-21 00:21:00,42.0,34.0,-100.00,NNW,339,3.0,-999.0,72,0.00,,,-99.99,,2013-02-21 08:21:00,
2013-02-21 00:32:00,42.0,34.0,-100.00,NNW,339,3.0,-999.0,72,0.00,,,-99.99,,2013-02-21 08:32:00,
2013-02-21 00:42:00,42.0,34.0,-100.00,NNW,339,3.0,-999.0,72,0.00,,,-99.99,,2013-02-21 08:42:00,
2013-02-21 00:52:00,42.0,34.0,-100.00,NNW,339,3.0,-999.0,72,0.00,,,-99.99,,2013-02-21 08:52:00,
2013-02-21 01:00:00,42.0,32.0,-100.00,NW,322,2.0,-999.0,67,0.00,,,-99.99,,2013-02-21 09:00:00,
2013-02-21 01:22:00,42.0,32.0,-100.00,NW,322,2.0,-999.0,67,0.00,,,-99.99,,2013-02-21 09:22:00,
2013-02-21 01:32:00,42.0,32.0,-100.00,NW,322,2.0,-999.0,67,0.00,,,-99.99,,2013-02-21 09:32:00,
2013-02-21 01:42:00,42.0,32.0,-100.00,NW,322,2.0,-999.0,67,0.00,,,-99.99,,2013-02-21 09:42:00,
2013-02-21 01:52:00,42.0,32.0,-100.00,NW,322,2.0,-999.0,67,0.00,,,-99.99,,2013-02-21 09:52:00,
2013-02-21 02:00:00,42.0,32.0,-100.00,South,175,2.0,-999.0,67,0.00,,,-99.99,,2013-02-21 10:00:00,
2013-02-21 02:21:00,42.0,32.0,-100.00,South,175,2.0,-999.0,67,0.00,,,-99.99,,2013-02-21 10:21:00,
2013-02-21 02:31:00,42.0,32.0,-100.00,South,175,2.0,-999.0,67,0.00,,,-99.99,,2013-02-21 10:31:00,
2013-02-21 02:41:00,42.0,32.0,-100.00,South,175,2.0,-999.0,67,0.00,,,-99.99,,2013-02-21 10:41:00,
2013-02-21 02:51:00,42.0,32.0,-100.00,South,175,2.0,-999.0,67,0.00,,,-99.99,,2013-02-21 10:51:00,
2013-02-21 03:00:00,42.0,33.0,-100.00,NE,40,1.0,-999.0,69,0.00,,,-99.99,,2013-02-21 11:00:00,
2013-02-21 03:21:00,42.0,33.0,-100.00,NE,40,1.0,-999.0,69,0.00,,,-99.99,,2013-02-21 11:21:00,
2013-02-21 03:31:00,42.0,33.0,-100.00,NE,40,1.0,-999.0,69,0.00,,,-99.99,,2013-02-21 11:31:00,
2013-02-21 03:41:00,42.0,33.0,-100.00,NE,40,1.0,-999.0,69,0.00,,,-99.99,,2013-02-21 11:41:00,
2013-02-21 03:51:00,42.0,33.0,-100.00,NE,40,1.0,-999.0,69,0.00,,,-99.99,,2013-02-21 11:51:00,
2013-02-21 04:00:00,43.0,34.0,-100.00,NNW,330,7.0,-999.0,70,0.00,,,-99.99,,2013-02-21 12:00:00,
2013-02-21 04:22:00,43.0,34.0,-100.00,NNW,330,7.0,-999.0,70,0.00,,,-99.99,,2013-02-21 12:22:00,
2013-02-21 04:32:00,43.0,34.0,-100.00,NNW,330,7.0,-999.0,70,0.00,,,-99.99,,2013-02-21 12:32:00,
2013-02-21 04:43:00,43.0,34.0,-100.00,NNW,330,7.0,-999.0,70,0.00,,,-99.99,,2013-02-21 12:43:00,
2013-02-21 04:52:00,43.0,34.0,-100.00,NNW,330,7.0,-999.0,70,0.00,,,-99.99,,2013-02-21 12:52:00,
2013-02-21 05:00:00,43.0,35.0,-100.00,NNW,329,13.0,-999.0,71,0.00,,,-99.99,,2013-02-21 13:00:00,
2013-02-21 05:22:00,43.0,35.0,-100.00,NNW,329,13.0,-999.0,71,0.00,,,-99.99,,2013-02-21 13:22:00,
2013-02-21 05:32:00,43.0,35.0,-100.00,NNW,329,13.0,-999.0,71,0.00,,,-99.99,,2013-02-21 13:32:00,
2013-02-21 05:42:00,43.0,35.0,-100.00,NNW,329,13.0,-999.0,71,0.00,,,-99.99,,2013-02-21 13:42:00,
2013-02-21 05:52:00,43.0,35.0,-100.00,NNW,329,13.0,-999.0,71,0.00,,,-99.99,,2013-02-21 13:52:00,
2013-02-21 06:00:00,42.0,34.0,-100.00,NE,40,1.0,-999.0,75,0.00,,,-99.99,,2013-02-21 14:00:00,
2013-02-21 06:22:00,42.0,34.0,-100.00,NE,40,1.0,-999.0,75,0.00,,,-99.99,,2013-02-21 14:22:00,
2013-02-21 06:32:00,42.0,34.0,-100.00,NE,40,1.0,-999.0,75,0.00,,,-99.99,,2013-02-21 14:32:00,
2013-02-21 06:42:00,42.0,34.0,-100.00,NE,40,1.0,-999.0,75,0.00,,,-99.99,,2013-02-21 14:42:00,
2013-02-21 06:52:00,42.0,34.0,-100.00,NE,40,1.0,-999.0,75,0.00,,,-99.99,,2013-02-21 14:52:00,
2013-02-21 07:00:00,41.0,34.0,-100.00,ESE,121,1.0,-999.0,75,0.00,,,-99.99,,2013-02-21 15:00:00,
2013-02-21 07:22:00,41.0,34.0,-100.00,ESE,121,1.0,-999.0,75,0.00,,,-99.99,,2013-02-21 15:22:00,
2013-02-21 07:32:00,41.0,34.0,-100.00,ESE,121,1.0,-999.0,75,0.00,,,-99.99,,2013-02-21 15:32:00,
2013-02-21 07:42:00,41.0,34.0,-100.00,ESE,121,1.0,-999.0,75,0.00,,,-99.99,,2013-02-21 15:42:00,
2013-02-21 07:52:00,41.0,34.0,-100.00,ESE,121,1.0,-999.0,75,0.00,,,-99.99,,2013-02-21 15:52:00,
2013-02-21 08:00:00,41.0,34.0,-100.00,SSW,197,2.0,-999.0,74,0.00,,,-99.99,,2013-02-21 16:00:00,
2013-02-21 08:22:00,41.0,34.0,-100.00,SSW,197,2.0,-999.0,74,0.00,,,-99.99,,2013-02-21 16:22:00,
2013-02-21 08:32:00,41.0,34.0,-100.00,SSW,197,2.0,-999.0,74,0.00,,,-99.99,,2013-02-21 16:32:00,
2013-02-21 08:42:00,41.0,34.0,-100.00,SSW,197,2.0,-999.0,74,0.00,,,-99.99,,2013-02-21 16:42:00,
2013-02-21 08:52:00,41.0,34.0,-100.00,SSW,197,2.0,-999.0,74,0.00,,,-99.99,,2013-02-21 16:52:00,
2013-02-21 09:00:00,43.0,34.0,-100.00,SSE,164,2.0,-999.0,71,0.00,,,-99.99,,2013-02-21 17:00:00,
2013-02-21 09:22:00,43.0,34.0,-100.00,SSE,164,2.0,-999.0,71,0.00,,,-99.99,,2013-02-21 17:22:00,
2013-02-21 09:32:00,43.0,34.0,-100.00,SSE,164,2.0,-999.0,71,0.00,,,-99.99,,2013-02-21 17:32:00,
2013-02-21 09:42:00,43.0,34.0,-100.00,SSE,164,2.0,-999.0,71,0.00,,,-99.99,,2013-02-21 17:42:00,
2013-02-21 09:52:00,43.0,34.0,-100.00,SSE,164,2.0,-999.0,71,0.00,,,-99.99,,2013-02-21 17:52:00,
2013-02-21 10:00:00,45.0,34.0,-100.00,NNW,342,3.0,-999.0,64,0.00,,,-99.99,,2013-02-21 18:00:00,
2013-02-21 10:22:00,45.0,34.0,-100.00,NNW,342,3.0,-999.0,64,0.00,,,-99.99,,2013-02-21 18:22:00,
2013-02-21 10:32:00,45.0,34.0,-100.00,NNW,342,3.0,-999.0,64,0.00,,,-99.99,,2013-02-21 18:32:00,
2013-02-21 10:42:00,45.0,34.0,-100.00,NNW,342,3.0,-999.0,64,0.00,,,-99.99,,2013-02-21 18:42:00,
2013-02-21 10:52:00,45.0,34.0,-100.00,NNW,342,3.0,-999.0,64,0.00,,,-99.99,,2013-02-21 18:52:00,
2013-02-21 11:00:00,52.0,34.0,-100.00,NE,36,0.0,-999.0,50,0.00,,,-99.99,,2013-02-21 19:00:00,
2013-02-21 11:22:00,52.0,34.0,-100.00,NE,36,0.0,-999.0,50,0.00,,,-99.99,,2013-02-21 19:22:00,
2013-02-21 11:32:00,52.0,34.0,-100.00,NE,36,0.0,-999.0,50,0.00,,,-99.99,,2013-02-21 19:32:00,
2013-02-21 11:42:00,52.0,34.0,-100.00,NE,36,0.0,-999.0,50,0.00,,,-99.99,,2013-02-21 19:42:00,
2013-02-21 11:52:00,52.0,34.0,-100.00,NE,36,0.0,-999.0,50,0.00,,,-99.99,,2013-02-21 19:52:00,
2013-02-21 12:00:00,56.0,36.0,-100.00,WSW,252,2.0,-999.0,46,0.00,,,-99.99,,2013-02-21 20:00:00,
2013-02-21 12:21:00,56.0,36.0,-100.00,WSW,252,2.0,-999.0,46,0.00,,,-99.99,,2013-02-21 20:21:00,
2013-02-21 12:32:00,56.0,36.0,-100.00,WSW,252,2.0,-999.0,46,0.00,,,-99.99,,2013-02-21 20:32:00,
2013-02-21 12:42:00,56.0,36.0,-100.00,WSW,252,2.0,-999.0,46,0.00,,,-99.99,,2013-02-21 20:42:00,
2013-02-21 12:52:00,56.0,36.0,-100.00,WSW,252,2.0,-999.0,46,0.00,,,-99.99,,2013-02-21 20:52:00,
2013-02-21 13:00:00,55.0,30.0,-100.00,NNW,338,4.0,-999.0,38,0.00,,,-99.99,,2013-02-21 21:00:00,
2013-02-21 13:22:00,55.0,30.0,-100.00,NNW,338,4.0,-999.0,38,0.00,,,-99.99,,2013-02-21 21:22:00,
2013-02-21 13:32:00,55.0,30.0,-100.00,NNW,338,4.0,-999.0,38,0.00,,,-99.99,,2013-02-21 21:32:00,
2013-02-21 13:42:00,55.0,30.0,-100.00,NNW,338,4.0,-999.0,38,0.00,,,-99.99,,2013-02-21 21:42:00,
2013-02-21 13:52:00,55.0,30.0,-100.00,NNW,338,4.0,-999.0,38,0.00,,,-99.99,,2013-02-21 21:52:00,
2013-02-21 14:00:00,58.0,30.0,-100.00,NNW,330,2.0,-999.0,33,0.00,,,-99.99,,2013-02-21 22:00:00,
2013-02-21 14:22:00,58.0,30.0,-100.00,NNW,330,2.0,-999.0,33,0.00,,,-99.99,,2013-02-21 22:22:00,
2013-02-21 14:32:00,58.0,30.0,-100.00,NNW,330,2.0,-999.0,33,0.00,,,-99.99,,2013-02-21 22:32:00,
2013-02-21 14:42:00,58.0,30.0,-100.00,NNW,330,2.0,-999.0,33,0.00,,,-99.99,,2013-02-21 22:42:00,
2013-02-21 14:52:00,58.0,30.0,-100.00,NNW,330,2.0,-999.0,33,0.00,,,-99.99,,2013-02-21 22:52:00,
2013-02-21 15:00:00,57.0,26.0,-100.00,NW,312,4.0,-999.0,30,0.00,,,-99.99,,2013-02-21 23:00:00,
2013-02-21 15:21:00,57.0,26.0,-100.00,NW,312,4.0,-999.0,30,0.00,,,-99.99,,2013-02-21 23:21:00,
2013-02-21 15:32:00,57.0,26.0,-100.00,NW,312,4.0,-999.0,30,0.00,,,-99.99,,2013-02-21 23:32:00,
2013-02-21 15:42:00,57.0,26.0,-100.00,NW,312,4.0,-999.0,30,0.00,,,-99.99,,2013-02-21 23:42:00,
2013-02-21 15:52:00,57.0,26.0,-100.00,NW,312,4.0,-999.0,30,0.00,,,-99.99,,2013-02-21 23:52:00,
2013-02-21 16:00:00,56.0,34.0,-100.00,NW,319,4.0,-999.0,43,0.00,,,-99.99,,2013-02-22 00:00:00,
2013-02-21 16:22:00,56.0,34.0,-100.00,NW,319,4.0,-999.0,43,0.00,,,-99.99,,2013-02-22 00:22:00,
2013-02-21 16:32:00,56.0,34.0,-100.00,NW,319,4.0,-999.0,43,0.00,,,-99.99,,2013-02-22 00:32:00,
2013-02-21 16:42:00,56.0,34.0,-100.00,NW,319,4.0,-999.0,43,0.00,,,-99.99,,2013-02-22 00:42:00,
2013-02-21 16:52:00,56.0,34.0,-100.00,NW,319,4.0,-999.0,43,0.00,,,-99.99,,2013-02-22 00:52:00,
2013-02-21 17:00:00,54.0,35.0,-100.00,NW,320,3.0,-999.0,48,0.00,,,-99.99,,2013-02-22 01:00:00,
2013-02-21 17:22:00,54.0,35.0,-100.00,NW,320,3.0,-999.0,48,0.00,,,-99.99,,2013-02-22 01:22:00,
2013-02-21 17:32:00,54.0,35.0,-100.00,NW,320,3.0,-999.0,48,0.00,,,-99.99,,2013-02-22 01:32:00,
2013-02-21 17:42:00,54.0,35.0,-100.00,NW,320,3.0,-999.0,48,0.00,,,-99.99,,2013-02-22 01:42:00,
2013-02-21 17:52:00,54.0,35.0,-100.00,NW,320,3.0,-999.0,48,0.00,,,-99.99,,2013-02-22 01:52:00,
2013-02-21 18:00:00,52.0,35.0,-100.00,NW,309,4.0,-999.0,51,0.00,,,-99.99,,2013-02-22 02:00:00,
2013-02-21 18:22:00,52.0,35.0,-100.00,NW,309,4.0,-999.0,51,0.00,,,-99.99,,2013-02-22 02:22:00,
2013-02-21 18:32:00,52.0,35.0,-100.00,NW,309,4.0,-999.0,51,0.00,,,-99.99,,2013-02-22 02:32:00,
2013-02-21 18:42:00,52.0,35.0,-100.00,NW,309,4.0,-999.0,51,0.00,,,-99.99,,2013-02-22 02:42:00,
2013-02-21 18:52:00,52.0,35.0,-100.00,NW,309,4.0,-999.0,51,0.00,,,-99.99,,2013-02-22 02:52:00,
2013-02-21 19:00:00,49.0,36.0,-100.00,NW,324,4.0,-999.0,60,0.00,,,-99.99,,2013-02-22 03:00:00,
2013-02-21 19:22:00,49.0,36.0,-100.00,NW,324,4.0,-999.0,60,0.00,,,-99.99,,2013-02-22 03:22:00,
2013-02-21 19:32:00,49.0,36.0,-100.00,NW,324,4.0,-999.0,60,0.00,,,-99.99,,2013-02-22 03:32:00,
2013-02-21 19:42:00,49.0,36.0,-100.00,NW,324,4.0,-999.0,60,0.00,,,-99.99,,2013-02-22 03:42:00,
2013-02-21 19:52:00,49.0,36.0,-100.00,NW,324,4.0,-999.0,60,0.00,,,-99.99,,2013-02-22 03:52:00,
2013-02-21 20:00:00,49.0,34.0,-100.00,NNW,341,3.0,-999.0,57,0.00,,,-99.99,,2013-02-22 04:00:00,
2013-02-21 20:21:00,49.0,34.0,-100.00,NNW,341,3.0,-999.0,57,0.00,,,-99.99,,2013-02-22 04:21:00,
2013-02-21 20:32:00,49.0,34.0,-100.00,NNW,341,3.0,-999.0,57,0.00,,,-99.99,,2013-02-22 04:32:00,
2013-02-21 20:42:00,49.0,34.0,-100.00,NNW,341,3.0,-999.0,57,0.00,,,-99.99,,2013-02-22 04:42:00,
2013-02-21 20:51:00,49.0,34.0,-100.00,NNW,341,3.0,-999.0,57,0.00,,,-99.99,,2013-02-22 04:51:00,
2013-02-21 21:00:00,47.0,34.0,-100.00,North,355,3.0,-999.0,59,0.00,,,-99.99,,2013-02-22 05:00:00,
2013-02-21 21:22:00,47.0,34.0,-100.00,North,355,3.0,-999.0,59,0.00,,,-99.99,,2013-02-22 05:22:00,
2013-02-21 21:32:00,47.0,34.0,-100.00,North,355,3.0,-999.0,59,0.00,,,-99.99,,2013-02-22 05:32:00,
2013-02-21 21:42:00,47.0,34.0,-100.00,North,355,3.0,-999.0,59,0.00,,,-99.99,,2013-02-22 05:42:00,
2013-02-21 21:52:00,47.0,34.0,-100.00,North,355,3.0,-999.0,59,0.00,,,-99.99,,2013-02-22 05:52:00,
2013-02-21 22:00:00,45.0,35.0,-100.00,SSW,205,2.0,-999.0,68,0.00,,,-99.99,,2013-02-22 06:00:00,
2013-02-21 22:22:00,45.0,35.0,-100.00,SSW,205,2.0,-999.0,68,0.00,,,-99.99,,2013-02-22 06:22:00,
2013-02-21 22:32:00,45.0,35.0,-100.00,SSW,205,2.0,-999.0,68,0.00,,,-99.99,,2013-02-22 06:32:00,
2013-02-21 22:42:00,45.0,35.0,-100.00,SSW,205,2.0,-999.0,68,0.00,,,-99.99,,2013-02-22 06:42:00,
2013-02-21 22:52:00,45.0,35.0,-100.00,SSW,205,2.0,-999.0,68,0.00,,,-99.99,,2013-02-22 06:52:00,
2013-02-21 23:00:00,43.0,35.0,-100.00,North,4,1.0,-999.0,73,0.00,,,-99.99,,2013-02-22 07:00:00,
2013-02-21 23:22:00,43.0,35.0,-100.00,North,4,1.0,-999.0,73,0.00,,,-99.99,,2013-02-22 07:22:00,
2013-02-21 23:32:00,43.0,35.0,-100.00,North,4,1.0,-999.0,73,0.00,,,-99.99,,2013-02-22 07:32:00,
2013-02-21 23:42:00,43.0,35.0,-100.00,North,4,1.0,-999.0,73,0.00,,,-99.99,,2013-02-22 07:42:00,
2013-02-21 23:52:00,43.0,35.0,-100.00,North,4,1.0,-999.0,73,0.00,,,-99.99,,2013-02-22 07:52:00,